When you browse on this site, cookies collect data to enhance your experience and personalize the content and advertising you see.
Visit our Privacy Policy to learn more. By continuing to use the site, you agree to this use of cookies and data.
  • In United Kingdom
  • List of Countries
  • For 7 days
  • Water Temperature
  • Weather Map
  • Weather Widgets
  • user-avatar
    Login

    Hourly Weather Liverpool

    Today, 26 February, Wednesday

    Time Temperature Precipitation Wind Pressure Humidity
    00:00 0°C° 0 mm 8 mps 745 mmHg 78%
    01:00 0°C° 0.2 mm 8 mps 746 mmHg 78%
    02:00 0°C° 0.2 mm 8 mps 746 mmHg 78%
    03:00 0°C° 0.2 mm 8 mps 746 mmHg 78%
    04:00 0°C° 0.1 mm 8 mps 747 mmHg 78%
    05:00 0°C° 0.1 mm 8 mps 747 mmHg 78%
    06:00 0°C° 0 mm 7 mps 748 mmHg 82%
    07:00 +2°C° 0.2 mm 7 mps 749 mmHg 80%
    08:00 +1°C° 0.2 mm 8 mps 749 mmHg 79%
    09:00 +2°C° 0.2 mm 8 mps 750 mmHg 77%
    10:00 +2°C° 0.2 mm 9 mps 751 mmHg 72%
    11:00 +3°C° 0.2 mm 9 mps 751 mmHg 67%
    12:00 +4°C° 0 mm 8 mps 752 mmHg 67%
    13:00 +4°C° 0.1 mm 8 mps 752 mmHg 65%
    14:00 +4°C° 0.1 mm 8 mps 752 mmHg 63%
    15:00 +4°C° 0.1 mm 7 mps 753 mmHg 60%
    16:00 +3°C° 0.1 mm 7 mps 753 mmHg 64%
    17:00 +2°C° 0.1 mm 6 mps 753 mmHg 68%
    18:00 +2°C° 0.1 mm 5 mps 752 mmHg 72%
    19:00 +2°C° 0 mm 5 mps 752 mmHg 75%
    20:00 +1°C° 0 mm 4 mps 752 mmHg 77%
    21:00 +1°C° 0 mm 4 mps 751 mmHg 80%
    22:00 +1°C° 0.1 mm 4 mps 751 mmHg 80%
    23:00 +1°C° 0.1 mm 4 mps 750 mmHg 81%

    Tomorrow, 27 February, Thursday

    Time Temperature Precipitation Wind Pressure Humidity
    00:00 +1°C° 0.1 mm 4 mps 750 mmHg 82%
    01:00 +1°C° 0.3 mm 4 mps 749 mmHg 86%
    02:00 +2°C° 0.3 mm 3 mps 748 mmHg 90%
    03:00 +2°C° 0.3 mm 3 mps 748 mmHg 94%
    04:00 +2°C° 0.6 mm 3 mps 748 mmHg 95%
    05:00 +2°C° 0.6 mm 3 mps 747 mmHg 95%
    06:00 +2°C° 0.6 mm 3 mps 747 mmHg 96%
    07:00 +1°C° 0.4 mm 4 mps 748 mmHg 95%
    08:00 +1°C° 0.4 mm 4 mps 748 mmHg 94%
    09:00 +1°C° 0.4 mm 5 mps 748 mmHg 93%
    10:00 +2°C° 0.2 mm 6 mps 749 mmHg 85%
    11:00 +2°C° 0.2 mm 7 mps 749 mmHg 77%
    12:00 +2°C° 0.2 mm 8 mps 750 mmHg 70%
    13:00 +2°C° 0.1 mm 8 mps 750 mmHg 67%
    14:00 +4°C° 0.1 mm 8 mps 751 mmHg 65%
    15:00 +4°C° 0.1 mm 8 mps 752 mmHg 62%
    16:00 +2°C° 0 mm 8 mps 752 mmHg 64%
    17:00 +3°C° 0 mm 7 mps 753 mmHg 67%
    18:00 +2°C° 0 mm 6 mps 754 mmHg 69%
    19:00 +2°C° 0 mm 5 mps 755 mmHg 72%
    20:00 +1°C° 0 mm 5 mps 755 mmHg 74%
    21:00 +1°C° 0 mm 4 mps 756 mmHg 77%
    22:00 +1°C° 0 mm 4 mps 756 mmHg 78%
    23:00 0°C° 0 mm 4 mps 757 mmHg 79%

    Day after tomorrow, 28 February, Friday

    Time Temperature Precipitation Wind Pressure Humidity
    00:00 +1°C° 0 mm 3 mps 757 mmHg 80%
    01:00 +1°C° 0 mm 3 mps 757 mmHg 79%
    02:00 +1°C° 0 mm 3 mps 756 mmHg 79%
    03:00 +1°C° 0 mm 3 mps 756 mmHg 79%
    04:00 0°C° 0 mm 4 mps 755 mmHg 78%
    05:00 +1°C° 0 mm 4 mps 755 mmHg 77%
    06:00 +1°C° 0 mm 5 mps 754 mmHg 76%
    07:00 +1°C° 0.1 mm 5 mps 753 mmHg 80%
    08:00 +1°C° 0.1 mm 6 mps 752 mmHg 84%
    09:00 0°C° 0.1 mm 7 mps 752 mmHg 88%
    10:00 0°C° 1.2 mm 8 mps 750 mmHg 90%
    11:00 0°C° 1.2 mm 8 mps 749 mmHg 93%
    12:00 0°C° 1.2 mm 9 mps 747 mmHg 95%
    13:00 +1°C° 1 mm 8 mps 746 mmHg 95%
    14:00 +3°C° 1 mm 7 mps 745 mmHg 95%
    15:00 +4°C° 1 mm 6 mps 743 mmHg 95%
    16:00 +5°C° 0.5 mm 5 mps 742 mmHg 95%
    17:00 +6°C° 0.5 mm 4 mps 742 mmHg 96%
    18:00 +6°C° 0.5 mm 4 mps 741 mmHg 96%
    19:00 +7°C° 0.7 mm 4 mps 740 mmHg 96%
    20:00 +7°C° 0.7 mm 5 mps 740 mmHg 96%
    21:00 +7°C° 0.7 mm 5 mps 739 mmHg 96%
    22:00 +8°C° 0.6 mm 5 mps 738 mmHg 95%
    23:00 +8°C° 0.6 mm 6 mps 737 mmHg 94%

    29 February, Saturday

    Time Temperature Precipitation Wind Pressure Humidity
    00:00 +9°C° 0.6 mm 7 mps 736 mmHg 93%
    01:00 +9°C° 0.4 mm 7 mps 735 mmHg 92%
    02:00 +9°C° 0.4 mm 8 mps 733 mmHg 90%
    03:00 +9°C° 0.4 mm 8 mps 731 mmHg 88%
    04:00 +9°C° 0.3 mm 8 mps 730 mmHg 88%
    05:00 +9°C° 0.3 mm 8 mps 729 mmHg 87%
    06:00 +9°C° 0.3 mm 8 mps 728 mmHg 87%
    07:00 +6°C° 0.4 mm 8 mps 728 mmHg 84%
    08:00 +5°C° 0.4 mm 8 mps 729 mmHg 81%
    09:00 +2°C° 0.4 mm 8 mps 729 mmHg 78%
    10:00 +4°C° 0 mm 8 mps 728 mmHg 71%
    11:00 +3°C° 0 mm 9 mps 727 mmHg 64%
    12:00 +5°C° 0 mm 9 mps 727 mmHg 58%
    13:00 +3°C° 1.1 mm 10 mps 725 mmHg 67%
    14:00 +2°C° 1.1 mm 10 mps 723 mmHg 77%
    15:00 +2°C° 1.1 mm 10 mps 721 mmHg 87%
    16:00 +2°C° 1 mm 11 mps 720 mmHg 86%
    17:00 +2°C° 1 mm 11 mps 720 mmHg 85%
    18:00 +2°C° 1 mm 11 mps 719 mmHg 83%
    19:00 +2°C° 0.2 mm 11 mps 720 mmHg 82%
    20:00 +2°C° 0.2 mm 11 mps 721 mmHg 80%
    21:00 +2°C° 0.2 mm 11 mps 722 mmHg 78%
    22:00 +2°C° 0.6 mm 12 mps 723 mmHg 80%
    23:00 +1°C° 0.6 mm 13 mps 725 mmHg 83%

    1 March, Sunday

    Time Temperature Precipitation Wind Pressure Humidity
    00:00 +1°C° 0.6 mm 14 mps 726 mmHg 85%
    01:00 0°C° 1.1 mm 15 mps 728 mmHg 83%
    02:00 0°C° 1.1 mm 15 mps 729 mmHg 81%
    03:00 0°C° 1.1 mm 16 mps 730 mmHg 78%
    04:00 0°C° 0.2 mm 15 mps 731 mmHg 76%
    05:00 0°C° 0.2 mm 14 mps 733 mmHg 74%
    06:00 -1°C° 0.2 mm 13 mps 734 mmHg 72%
    07:00 -1°C° 0 mm 12 mps 734 mmHg 70%
    08:00 0°C° 0 mm 12 mps 735 mmHg 67%
    09:00 +1°C° 0 mm 11 mps 736 mmHg 65%
    10:00 +1°C° 0.1 mm 11 mps 736 mmHg 63%
    11:00 +2°C° 0.1 mm 12 mps 736 mmHg 61%
    12:00 +2°C° 0.1 mm 12 mps 737 mmHg 59%
    13:00 +2°C° 0.2 mm 12 mps 737 mmHg 62%
    14:00 +2°C° 0.2 mm 11 mps 738 mmHg 64%
    15:00 +3°C° 0.2 mm 11 mps 738 mmHg 67%
    16:00 +2°C° 0.1 mm 10 mps 738 mmHg 69%
    17:00 +2°C° 0.1 mm 10 mps 739 mmHg 70%
    18:00 +1°C° 0.1 mm 9 mps 739 mmHg 72%
    19:00 +1°C° 0 mm 8 mps 740 mmHg 73%
    20:00 +2°C° 0 mm 7 mps 741 mmHg 75%
    21:00 0°C° 0 mm 7 mps 741 mmHg 76%
    22:00 +1°C° 0 mm 6 mps 741 mmHg 77%
    23:00 0°C° 0 mm 5 mps 742 mmHg 79%

    2 March, Monday

    Time Temperature Precipitation Wind Pressure Humidity
    00:00 0°C° 0 mm 4 mps 742 mmHg 80%
    01:00 -1°C° 0 mm 4 mps 742 mmHg 81%
    02:00 0°C° 0 mm 3 mps 742 mmHg 82%
    03:00 0°C° 0 mm 3 mps 742 mmHg 83%
    04:00 0°C° 0 mm 3 mps 742 mmHg 84%
    05:00 0°C° 0 mm 3 mps 743 mmHg 84%
    06:00 +1°C° 0 mm 2 mps 743 mmHg 85%
    07:00 +1°C° 0 mm 3 mps 743 mmHg 82%
    08:00 +2°C° 0 mm 3 mps 744 mmHg 79%
    09:00 +3°C° 0 mm 3 mps 744 mmHg 76%
    10:00 +3°C° 0 mm 3 mps 745 mmHg 71%
    11:00 +4°C° 0 mm 4 mps 745 mmHg 67%
    12:00 +5°C° 0 mm 4 mps 746 mmHg 62%
    13:00 +5°C° 0 mm 5 mps 746 mmHg 62%
    14:00 +6°C° 0 mm 5 mps 746 mmHg 62%
    15:00 +6°C° 0 mm 5 mps 747 mmHg 62%
    16:00 +5°C° 0 mm 5 mps 747 mmHg 68%
    17:00 +4°C° 0 mm 4 mps 748 mmHg 73%
    18:00 +3°C° 0 mm 4 mps 748 mmHg 79%
    19:00 +1°C° 0.1 mm 4 mps 749 mmHg 79%
    20:00 +1°C° 0.1 mm 4 mps 750 mmHg 80%
    21:00 +1°C° 0.1 mm 4 mps 750 mmHg 80%
    22:00 +1°C° 0.2 mm 4 mps 751 mmHg 81%
    23:00 +1°C° 0.2 mm 4 mps 751 mmHg 81%
    Show more